TIME,DELAY(SENSOR),PRES,OXYGEN,RAWTEMP,T(OPTODE),TCPHASE,FLUOR,BETA(BETA700),BETA(BETA412),BETA(BETA440),CDOM,C(CSC),ED(ED411.90),ED(ED443.80),ED(ED489.40),ED(ED554.70),LU(LU412.20),LU(LU443.80),LU(LU489.40),LU(LU555.00),COMP,TILTX,TILTY,CHECK
1340315701,5807,853.7500000000000000,190.5458984375000000,483.8109130859375000,8.0308885574340820,38.2166404724121100,53,102,100,79,82,14961,2146956288,2147517869,2147292132,2147518089,2147092681,2146917321,2147716169,2147116763,2669,-1,8,15609
1340319297,5804,973.4500122070312000,227.9277038574218800,532.4270019531250000,6.5198330879211430,36.8598213195800800,52,108,99,80,82,14950,2146961371,2147518390,2147297316,2147524882,2147091355,2146911680,2147725696,2147115035,2544,-1,8,55265
1340322897,5801,1001.1099853515625000,236.9049072265625000,540.4077148437500000,6.2701678276062010,36.5276489257812500,53,102,100,79,82,14891,2146957732,2147516315,2147294354,2147528667,2147092653,2146915328,2147730898,2147116973,3556,-1,8,4422
1340326497,5807,996.9099731445312000,239.1038055419922000,542.5811157226562000,6.2020931243896480,36.4534492492675800,52,102,100,79,82,14892,2146959497,2147519286,2147297901,2147527003,2147090770,2146918226,2147725348,2147120182,379,-1,8,29471
1340330097,5804,1001.7500000000000000,243.3177032470703000,544.6436157226562000,6.1374568939208980,36.2756690979003900,53,105,102,79,81,14893,2146957732,2147520987,2147296548,2147530706,2147089700,2146913526,2147728932,2147115547,3479,-1,8,60268
1340333697,5806,1002.7899780273438000,244.4306945800781200,545.7094116210938000,6.1040458679199220,36.2387695312500000,53,102,100,79,81,14888,2146962770,2147516406,2147296539,2147530788,2147088822,2146915346,2147727616,2147118747,3545,-1,8,2111
1340337297,5803,1003.5599975585938000,243.4844055175781200,546.4935302734375000,6.0794582366943360,36.3008308410644500,52,105,100,79,82,14887,2146957952,2147516333,2147294208,2147530816,2147093101,2146918802,2147726976,2147114102,3188,-1,8,59992
1340340897,5806,1006.9400024414062000,244.7317047119140600,547.3336181640625000,6.0531082153320310,36.2531890869140600,53,104,100,80,82,14887,2146961197,2147519222,2147295570,2147529554,2147091236,2146919040,2147726153,2147115986,15,-1,8,44
1340344497,5808,1006.4400024414062000,244.5973968505859400,546.7020263671875000,6.0729198455810550,36.2487297058105500,53,104,102,80,82,14884,2146957668,2147517376,2147298569,2147527661,2147092050,2146920941,2147727771,2147116845,257,-1,8,57331
1340348097,5807,1015.0399780273438000,245.0982055664062500,546.7523803710938000,6.0713372230529785,36.2240104675293000,51,102,101,80,81,14884,2146958509,2147518253,2147300534,2147529782,2147093376,2146919387,2147730285,2147116553,3439,-1,8,25747
1340351697,5806,1008.7899780273438000,243.3417968750000000,545.4144897460938000,6.1132907867431640,36.2886314392089840,52,103,101,80,81,14880,2146957824,2147515209,2147297600,2147531355,2147090706,2146914953,2147726061,2147117001,3543,-1,8,13785
1340355297,5805,1010.1900024414062000,245.7857055664062500,548.6030273437500000,6.0132851600646970,36.2235183715820300,52,103,101,80,82,14884,2146958774,2147516781,2147298578,2147528466,2147090432,2146911808,2147729682,2147112265,3397,-1,8,49129
1340358897,5803,1012.5900268554688000,245.6215057373047000,547.5241699218750000,6.0471291542053220,36.2119102478027340,52,103,102,79,82,14884,2146960256,2147514578,2147299492,2147532342,2147092370,2146915090,2147729417,2147115172,3584,-1,8,28994
1340362497,5807,1017.2500000000000000,244.7512969970703000,547.3342285156250000,6.0530910491943360,36.2519989013671900,52,101,102,78,81,14882,2146959744,2147513874,2147296795,2147531337,2147089691,2146923090,2147727661,2147115812,176,-1,8,52704
1340366097,5802,1015.1599731445312000,245.3087005615234400,546.4442138671875000,6.0810031890869140,36.2081604003906250,52,106,100,79,81,14883,2146956516,2147510546,2147296365,2147528859,2147090194,2146919250,2147724224,2147116690,3202,-1,8,59443
1340369697,5806,1013.7600097656250000,244.4463043212890600,547.0051879882812000,6.0634098052978520,36.2619018554687500,52,106,102,80,83,14882,2146959232,2147514075,2147301686,2147529206,2147091712,2146918098,2147725257,2147117010,3481,-1,8,39044
1340373297,5806,1019.5300292968750000,244.7832031250000000,545.7387695312500000,6.1031231880187990,36.2219200134277340,52,105,100,79,82,14867,2146962368,2147513289,2147298697,2147529929,2147093787,2146915977,2147727040,2147118098,3189,-1,8,52000
1340376897,5805,1011.2199707031250000,243.5807037353515600,547.1005859375000000,6.0604171752929690,36.3069000244140600,52,104,99,80,81,14863,2146960091,2147516717,2147298953,2147530925,2147092525,2146920539,2147731986,2147116635,3157,-1,8,5022
1340380497,5808,1013.1400146484375000,248.1808013916015600,549.9677734375000000,5.9704527854919430,36.1288299560546900,53,105,100,79,82,14858,2146958198,2147517330,2147299382,2147531364,2147091931,2146916544,2147724022,2147113600,2838,-1,8,57139
1340384097,5806,1014.6500244140625000,249.2704925537109400,550.4082031250000000,5.9566287994384770,36.0832710266113300,52,107,101,80,82,14859,2146958006,2147517293,2147299236,2147534400,2147093467,2146913078,2147726811,2147113929,2901,-1,8,47928
1340387697,5805,1018.7199707031250000,248.6354980468750000,549.8275756835938000,5.9748539924621580,36.1043701171875000,54,102,101,79,82,14859,2146957156,2147520713,2147297993,2147530249,2147093184,2146920073,2147725942,2147114825,2944,-1,8,51878
1340391297,5808,1016.9500122070312000,248.6986999511718800,550.4105834960938000,5.9565529823303220,36.1113891601562500,53,104,102,79,82,14853,2146956013,2147516013,2147295808,2147528036,2147089298,2146913197,2147727076,2147116397,3282,-1,8,19400
1340394897,5806,1013.8699951171875000,248.5193023681640600,550.2219238281250000,5.9624772071838380,36.1167602539062500,52,103,100,78,82,14856,2146958683,2147519817,2147301430,2147530971,2147095670,2146917430,2147727433,2147117302,3113,-1,8,33329
1340398497,5804,1015.2399902343750000,249.6349029541015600,550.5667114257812000,5.9516539573669430,36.0687904357910160,52,110,100,79,82,14852,2146957778,2147518729,2147299684,2147529088,2147089627,2146918180,2147733979,2147116050,3576,-1,8,22256
1340402097,5756,1017.9500122070312000,250.0420989990234400,550.9824218750000000,5.9386038780212400,36.0556602478027340,53,103,101,80,82,14851,2146954578,2147515913,2147297563,2147530084,2147089490,2146915437,2147728237,2147116507,47,-1,8,39144
1340405697,5806,1015.0300292968750000,248.3648071289062500,549.6790161132812000,5.9795188903808590,36.1151695251464840,52,104,101,79,82,14852,2146955629,2147517494,2147299382,2147529837,2147090203,2146921334,2147727030,2147115547,315,-1,8,7325
1340409297,5802,1020.1799926757812000,246.3639984130859400,548.6550292968750000,6.0116539001464840,36.1956901550293000,52,104,101,79,81,14850,2146958637,2147517869,2147299611,2147534710,2147089618,2146917723,2147722523,2147118281,3254,-1,8,44622
1340412897,5805,1020.7299804687500000,247.5836944580078000,549.7368774414062000,5.9777011871337890,36.1542205810546900,52,102,101,80,82,14850,2146959268,2147522486,2147298130,2147529718,2147093001,2146918080,2147730322,2147115977,164,-1,7,13942
1340416497,5805,1017.3400268554688000,248.2158050537109400,549.9869995117188000,5.9698510169982910,36.1278610229492200,52,103,100,80,81,14851,2146958345,2147517696,2147300562,2147530898,2147089801,2146919552,2147729819,2147118125,2796,-1,8,39968
1340420097,5803,1020.3099975585938000,249.4656066894531200,550.7352905273438000,5.9463620185852050,36.0799293518066400,52,104,100,79,82,14850,2146957860,2147516544,2147295040,2147531382,2147089508,2146914194,2147725668,2147119542,3508,-1,8,52881
1340423697,5807,1022.3099975585938000,249.0803985595703000,550.1741943359375000,5.9639739990234375,36.0883903503418000,53,103,100,78,83,14847,2146956608,2147517321,2147299017,2147527862,2147087853,2146915620,2147730258,2147116626,108,-1,8,8122
1340427297,5803,1023.7399902343750000,247.6446990966797000,550.1033935546875000,5.9661979675292970,36.1582908630371100,52,101,101,80,82,14846,2146958857,2147515721,2147298898,2147530203,2147090404,2146915721,2147731446,2147114395,3479,-1,8,61122
1340430897,5807,1023.1199951171875000,248.5581970214843800,550.2244873046875000,5.9623951911926270,36.1147918701171900,52,104,99,79,81,14848,2146958153,2147517750,2147299446,2147529609,2147091776,2146919323,2147731867,2147116562,560,-1,8,56032
1340434497,5806,1020.3599853515625000,247.4013061523437500,550.6052246093750000,5.9504470825195310,36.1791801452636700,52,104,101,79,81,14847,2146957723,2147518025,2147295533,2147528310,2147093366,2146916315,2147726272,2147117650,142,-1,8,50807
1340438097,5809,1022.0700073242188000,248.5516967773437500,550.6917114257812000,5.9477310180664060,36.1241111755371100,52,107,101,78,82,14843,2146956845,2147516973,2147298075,2147531584,2147091657,2146911405,2147730331,2147117266,176,-1,8,36167
1340441697,5807,1026.1300048828125000,247.9667968750000000,550.6517944335938000,5.9489817619323730,36.1522293090820300,52,101,102,79,83,14845,2146959552,2147518400,2147298633,2147531766,2147088941,2146918016,2147723766,2147116800,83,-1,7,37494
1340445297,5806,1023.1599731445312000,249.3495025634765600,550.1547851562500000,5.9645819664001465,36.0750808715820300,52,103,99,79,82,14846,2146959899,2147514688,2147299529,2147530267,2147089773,2146916278,2147726765,2147119286,2735,-1,8,1891
1340448897,5804,1021.3200073242188000,249.0960998535156200,550.3408203125000000,5.9587440490722660,36.0903816223144500,52,107,101,79,82,14841,2146960018,2147519286,2147297673,2147529206,2147091638,2146914459,2147729051,2147114468,2825,-1,8,7563
1340452497,5805,1024.2299804687500000,249.7319030761718800,550.5360717773438000,5.9526162147521970,36.0630416870117200,53,105,99,80,82,14838,2146958281,2147520210,2147300050,2147528548,2147092434,2146918354,2147727753,2147115867,3283,-1,8,24294
1340456097,5805,1023.5700073242188000,248.6311035156250000,550.2276000976562000,5.9622988700866700,36.1115798950195300,52,104,101,78,81,14836,2146960649,2147518720,2147299419,2147529270,2147092205,2146917568,2147728018,2147116169,3274,-1,8,23977
1340459154,5805,1021.5700073242188000,249.5829010009765600,551.4813842773438000,5.9229340553283690,36.0876693725585940,53,103,100,78,83,14899,2146954642,2147519762,2147297965,2147531099,2147093357,2146917860,2147728475,2147116022,3079,-1,8,61974
